Tracking 31027 objects as of 19-Jul-2025
HD Live streaming from Space Station
objects crossing your sky now

CZ-3B R/B

Track CZ-3B R/B now!
10-day predictions


NORAD ID: 58657
Int'l Code: 2023-207D
Perigee: 328.1 km
Apogee: 17,007.2 km
Inclination: 55.0 °
Period: 305.9 minutes
Semi major axis: 15038 km
RCS: Unknown
Launch date: December 26, 2023
Source: People's Republic of China (PRC)
Launch site: Xichang Space Center, China (XSC)

Note: This is a ROCKET BODY
Your satellite tracking list
ATLAS 2A CENTAUR R/B
Track 1 satellite(s)




NASA's NSSDC Master Catalog

Two Line Element Set (TLE):
1 58657U 23207D   25198.38578349  .00005783  00000-0  16395-2 0  9996
2 58657  54.9550 119.9071 5545423 358.1189   0.4458  4.70749470 26216
Source of the keplerian elements: AFSPC